Tracking 35334 objects as of 12-Sep-2026
HD Live streaming from Space Station
objects crossing your sky now

GB 2

Track GB 2 now!
10-day predictions
GB 2 is classified as:


NORAD ID: 14144
Int'l Code: 1983-056D
Launch date: June 9, 1983
Source: United States (US)
Launch site: AIR FORCE WESTERN TEST RANGE (AFWTR)
Your satellite tracking list
Your tracking list is empty




NASA's NSSDC Master Catalog

Two Line Element Set (TLE):
1 14144U 83056D   26254.67495957  .00002692  00000-0  36637-3 0  9994
2 14144  63.3161  19.4132 0715179 133.3145 232.9858 13.79049018367876
Source of the keplerian elements: AFSPC